Location: Katherine
(14.4670°S, 132.2670°E)
Time: 14:23:16
(UTC+09:30)

ISS - Pass Details

Date: 20 February 2018
Orbit: 402 x 407 km, 51.6° (Epoch: 23 February)

Event Time Altitude Azimuth Distance (km) Brightness Sun altitude
Rises 05:44:24 0° 209° (SSW) 2,337 -0.1 -13.8°
Reaches altitude 10° 05:46:33 10° 201° (SSW) 1,472 -1.1 -13.3°
Maximum altitude 05:49:43 42° 129° (SE) 592 -2.5 -12.6°
Drops below altitude 10° 05:52:50 10° 56° (NE) 1,457 -0.4 -11.9°
Sets 05:54:58 0° 48° (NE) 2,310 0.5 -11.4°
